TimeEDT,TemperatureF,Dew PointF,Humidity,Sea Level PressureIn,VisibilityMPH,Wind Direction,Wind SpeedMPH,Gust SpeedMPH,PrecipitationIn,Events,Conditions,WindDirDegrees,DateUTC
12:52 AM,60.1,55.0,83,30.17,10.0,SSW,5.8,-,N/A,,Partly Cloudy,200,2008-04-24 04:52:00
1:52 AM,61.0,55.9,83,30.17,10.0,South,6.9,-,N/A,,Mostly Cloudy,180,2008-04-24 05:52:00
2:52 AM,60.1,55.9,86,30.16,10.0,South,5.8,-,N/A,,Mostly Cloudy,190,2008-04-24 06:52:00
3:52 AM,60.1,55.9,86,30.16,10.0,South,5.8,-,N/A,,Scattered Clouds,180,2008-04-24 07:52:00
4:52 AM,59.0,55.9,90,30.16,9.0,South,5.8,-,N/A,,Clear,180,2008-04-24 08:52:00
5:52 AM,59.0,55.9,90,30.16,8.0,South,3.5,-,N/A,,Partly Cloudy,180,2008-04-24 09:52:00
6:52 AM,59.0,55.0,87,30.19,7.0,SSW,3.5,-,N/A,,Clear,210,2008-04-24 10:52:00
7:52 AM,61.0,57.0,87,30.21,6.0,Calm,Calm,-,N/A,,Partly Cloudy,0,2008-04-24 11:52:00
8:52 AM,64.9,57.0,75,30.22,9.0,Calm,Calm,-,N/A,,Partly Cloudy,0,2008-04-24 12:52:00
9:52 AM,70.0,57.0,63,30.22,10.0,NE,11.5,-,N/A,,Mostly Cloudy,40,2008-04-24 13:52:00
10:52 AM,72.0,55.9,57,30.24,10.0,ENE,6.9,-,N/A,,Scattered Clouds,60,2008-04-24 14:52:00
11:52 AM,73.9,55.9,53,30.23,10.0,NE,5.8,-,N/A,,Scattered Clouds,40,2008-04-24 15:52:00
12:52 PM,77.0,55.9,48,30.22,10.0,North,6.9,-,N/A,,Scattered Clouds,360,2008-04-24 16:52:00
1:52 PM,78.1,54.0,43,30.19,10.0,Calm,Calm,-,N/A,,Mostly Cloudy,0,2008-04-24 17:52:00
2:52 PM,78.1,51.1,39,30.17,10.0,North,8.1,-,N/A,,Mostly Cloudy,360,2008-04-24 18:52:00
3:52 PM,78.1,51.1,39,30.15,10.0,North,9.2,-,N/A,,Overcast,360,2008-04-24 19:52:00
4:52 PM,79.0,48.9,35,30.13,10.0,North,8.1,-,N/A,,Mostly Cloudy,10,2008-04-24 20:52:00
5:52 PM,78.1,46.9,33,30.12,10.0,NNW,8.1,-,N/A,,Overcast,330,2008-04-24 21:52:00
6:52 PM,73.9,48.0,40,30.12,10.0,North,6.9,-,N/A,,Overcast,360,2008-04-24 22:52:00
7:52 PM,71.1,44.1,38,30.12,10.0,NE,6.9,-,N/A,,Overcast,50,2008-04-24 23:52:00
8:52 PM,69.1,48.0,47,30.14,10.0,ESE,4.6,-,N/A,,Mostly Cloudy,120,2008-04-25 00:52:00
9:52 PM,69.1,51.1,53,30.15,10.0,Calm,Calm,-,N/A,,Mostly Cloudy,0,2008-04-25 01:52:00
10:52 PM,66.0,52.0,60,30.16,10.0,Calm,Calm,-,N/A,,Mostly Cloudy,0,2008-04-25 02:52:00
11:52 PM,63.0,54.0,72,30.15,10.0,North,3.5,-,N/A,,Overcast,360,2008-04-25 03:52:00